Flag for Italy Weather past 2 weeks in Venice, Italy

Now
75 °F

Passing clouds.


Feels Like: 78 °F
Forecast: 63 / 74 °F
Wind: 7 mph from East

Location: Venice / Tessera

Current Time: Sep 16, 2014 at 2:06:05 PM

Latest Report: Sep 16, 2014 at 1:20 PM


Visibility: N/A

Pressure: 30.01 "Hg

Humidity: 54%

Dew point: 57 °F

Location of VeniceLocation

Historic Weather in Venice — Graph

°F

Venice temperature yesterday

Maximum temperature yesterday: 73 °F (at 11:50 AM)
Minimum temperature yesterday: 61 °F (at 7:50 AM)
Average temperature yesterday: 68 °F

Past Weeks' High & Low Weather Summary

 TemperatureHumidityPressure
High84 °F (Sep 7, 2:50 AM)100% (Sep 3, 6:50 AM)30.04 "Hg (Sep 3, 6:50 AM)
Low57 °F (Sep 14, 7:20 AM)45% (Sep 7, 2:50 AM)29.74 "Hg (Sep 1, 2:20 PM)
Average68 °F78%29.91 "Hg
* Reported Sep 1 12:20 PM — Sep 16 12:50 PM, Venice, Weather by CustomWeather, © 2014

Note: Actual official high and low records may vary slightly from our data, if they occured in-between our weather recording intervals... More about our weather records

Advertising

Venice weather history for previous 24 hours

 ConditionsComfort  
Time TempWeatherWind HumidityBarometerVisibility
12:50 PM
Sep 16
73 °FPassing clouds.8 mph53%30.01 "HgN/A
12:20 PM73 °FPassing clouds.8 mph57%30.01 "HgN/A
11:50 AM73 °FPassing clouds.6 mph57%30.01 "HgN/A
11:20 AM73 °FPassing clouds.3 mph69%30.01 "HgN/A
10:50 AM72 °FSunny.3 mph69%30.01 "Hg10 mi
10:20 AM70 °FPassing clouds.3 mph78%30.01 "HgN/A
9:50 AM66 °FScattered clouds.5 mph83%30.01 "HgN/A
9:20 AM64 °FScattered clouds.6 mph94%30.01 "HgN/A
8:50 AM63 °FScattered clouds.5 mph94%29.98 "HgN/A
8:20 AM63 °FPassing clouds.5 mph88%29.98 "HgN/A
7:50 AM63 °FClear.6 mph94%29.98 "Hg6 mi
7:20 AM61 °FClear.6 mph94%29.98 "Hg5 mi
6:50 AM61 °FFog.5 mph94%29.98 "Hg4 mi
6:20 AM61 °FClear.1 mph94%29.98 "Hg5 mi
5:50 AM61 °FClear.2 mph94%29.98 "Hg4 mi
5:20 AM61 °FClear.5 mph94%29.98 "Hg4 mi
4:50 AM63 °FClear.3 mph88%29.98 "Hg6 mi
4:20 AM61 °FClear.5 mph94%29.98 "Hg6 mi
3:50 AM61 °FClear.5 mph88%29.98 "Hg10 mi
3:20 AM66 °FClear.6 mph83%29.98 "Hg10 mi
2:50 AM64 °FClear.5 mph83%29.98 "Hg10 mi
2:20 AM64 °FClear.5 mph88%29.98 "Hg10 mi
1:50 AM63 °FClear.6 mph88%29.98 "Hg10 mi
1:20 AM64 °FClear.2 mph88%29.98 "Hg10 mi
12:50 AM64 °FClear.3 mph88%30.01 "Hg10 mi
12:20 AM63 °FClear.3 mph94%30.01 "Hg10 mi
11:50 PM
Sep 15
64 °FClear.No wind83%29.98 "Hg10 mi
11:20 PM68 °FClear.2 mph78%29.98 "Hg10 mi
10:50 PM68 °FClear.No wind83%29.98 "Hg10 mi
10:20 PM68 °FClear.3 mph83%29.98 "Hg10 mi
9:50 PM68 °FClear.5 mph83%29.98 "Hg10 mi
9:20 PM68 °FClear.5 mph78%29.98 "Hg10 mi
8:50 PM68 °FClear.2 mph78%29.98 "Hg10 mi
8:20 PM68 °FSunny.3 mph78%29.98 "Hg10 mi
7:50 PM68 °FSunny.2 mph78%29.95 "Hg10 mi
7:20 PM70 °FSunny.5 mph73%29.95 "Hg10 mi
6:50 PM70 °FSunny.6 mph69%29.95 "Hg10 mi
6:20 PM70 °FSunny.5 mph69%29.95 "Hg10 mi
5:50 PM72 °FSunny.6 mph69%29.95 "Hg10 mi
5:20 PM73 °FSunny.6 mph69%29.95 "Hg10 mi
4:50 PM72 °FSunny.3 mph69%29.95 "Hg10 mi
4:20 PM72 °FSunny.5 mph65%29.98 "Hg10 mi
3:50 PM72 °FScattered clouds.6 mph73%29.98 "HgN/A
3:20 PM72 °FScattered clouds.6 mph78%29.98 "HgN/A
2:50 PM72 °FScattered clouds.5 mph69%29.98 "HgN/A
2:20 PM73 °FScattered clouds.7 mph74%29.98 "HgN/A
Weather by CustomWeather, © 2014

See weather overviewHow to use our weather pages